Temp
-5 -5 -5 -5 -5 -5 -5 -5 -5 -6 -6 -6 -6 -6 -6 -6 -6 -6 -6 -6 -6 -6 -5 -6 -6 -5 -6 -6 -6 -6 -6 -6 -6 -6 -6 -6 -6 -6 -6 -6 -6 -7
-5 -5 -5 -5 -5 -5 -5 -5 -5 -5 -5 -5 -5 -5 -6 -6 -6 -6 -6 -6 -6 -6 -5 -5 -5 -5 -5 -5 -5 -6 -6 -6 -6 -6 -6 -6 -6 -6 -6 -6 -6 -6
-5 -5 -5 -5 -5 -5 -5 -5 -5 -5 -5 -5 -5 -5 -5 -5 -5 -6 -6 -6 -5 -5 -5 -5 -5 -5 -5 -5 -5 -5 -5 -6 -6 -6 -6 -6 -6 -6 -6 -6 -6 -6
-5 -5 -5 -5 -5 -5 -5 -5 -5 -5 -5 -5 -5 -5 -5 -5 -5 -5 -5 -5 -5 -5 -5 -5 -5 -5 -5 -5 -5 -5 -5 -5 -5 -5 -5 -6 -6 -6 -6 -6 -6 -6
-5 -5 -5 -5 -5 -5 -5 -5 -5 -5 -5 -5 -5 -5 -5 -5 -5 -5 -5 -5 -5 -5 -5 -5 -5 -5 -5 -5 -5 -5 -5 -5 -5 -5 -6 -6 -6 -6 -6 -6 -6 -6
-5 -5 -5 -5 -5 -5 -5 -5 -5 -5 -5 -5 -5 -5 -5 -5 -5 -5 -5 -5 -5 -5 -5 -5 -5 -5 -5 -5 -5 -5 -5 -5 -5 -5 -6 -6 -6 -6 -6 -6 -6 -6
-5 -5 -5 -5 -5 -5 -5 -5 -5 -5 -5 -5 -5 -5 -5 -5 -5 -5 -5 -5 -5 -5 -5 -5 -5 -5 -5 -5 -5 -5 -5 -5 -5 -5 -5 -6 -6 -6 -6 -6 -6 -6
-5 -5 -5 -5 -5 -5 -5 -5 -5 -5 -5 -5 -5 -5 -5 -5 -5 -5 -5 -5 -5 -5 -5 -5 -5 -5 -5 -5 -5 -5 -5 -5 -6 -5 -5 -6 -6 -6 -6 -6 -6 -6
-5 -5 -5 -5 -5 -5 -5 -5 -5 -5 -5 -5 -5 -5 -5 -5 -5 -5 -5 -5 -5 -5 -5 -5 -5 -5 -5 -5 -5 -5 -5 -5 -5 -6 -6 -6 -6 -6 -6 -6 -6 -6
-5 -5 -5 -5 -5 -5 -5 -5 -5 -5 -5 -5 -5 -5 -5 -5 -5 -5 -5 -5 -5 -5 -5 -5 -5 -5 -5 -5 -5 -5 -5 -5 -5 -5 -6 -6 -6 -6 -6 -6 -6 -6
-5 -5 -5 -5 -5 -5 -5 -5 -5 -5 -5 -5 -5 -5 -5 -5 -5 -5 -5 -5 -5 -5 -5 -5 -5 -5 -5 -5 -5 -5 -5 -5 -5 -5 -5 -6 -6 -6 -6 -6 -6 -6
-5 -5 -5 -5 -5 -5 -5 -5 -5 -5 -5 -5 -5 -6 -5 -5 -5 -5 -5 -5 -6 -6 -6 -6 -6 -6 -5 -6 -6 -6 -6 -6 -6 -6 -6 -6 -6 -6 -6 -6 -6 -6
-5 -5 -5 -5 -5 -5 -5 -5 -5 -6 -6 -6 -6 -6 -6 -6 -6 -6 -6 -6 -5 -6 -6 -6 -6 -6 -6 -6 -6 -6 -6 -6 -6 -6 -6 -6 -6 -6 -6 -6 -6 -6
-5 -5 -5 -5 -5 -5 -5 -6 -6 -6 -6 -6 -6 -6 -6 -6 -6 -6 -6 -6 -6 -6 -6 -6 -6 -6 -6 -6 -6 -6 -6 -6 -6 -6 -6 -6 -6 -6 -6 -6 -6 -6
-5 -5 -6 -6 -6 -6 -6 -6 -6 -6 -5 -6 -6 -6 -6 -6 -6 -6 -6 -6 -6 -6 -6 -6 -6 -6 -6 -6 -6 -6 -6 -6 -6 -6 -6 -6 -6 -6 -6 -6 -6 -6
-5 -6 -6 -6 -6 -6 -6 -6 -6 -6 -6 -6 -6 -6 -6 -6 -6 -6 -6 -6 -6 -6 -6 -6 -6 -6 -6 -6 -6 -6 -6 -6 -6 -6 -6 -6 -6 -6 -6 -6 -6 -6
-6 -6 -6 -6 -6 -6 -6 -6 -6 -6 -6 -6 -6 -6 -6 -6 -6 -6 -6 -6 -6 -6 -6 -6 -6 -6 -6 -6 -6 -6 -6 -6 -6 -6 -6 -6 -6 -6 -6 -6 -6 -6
-6 -6 -6 -6 -6 -6 -6 -6 -6 -6 -6 -6 -6 -6 -6 -6 -6 -6 -6 -6 -6 -6 -6 -6 -6 -6 -6 -6 -6 -6 -6 -6 -6 -6 -6 -6 -6 -6 -6 -6 -6 -6
-6 -7 -7 -7 -7 -7 -7 -6 -6 -6 -6 -6 -6 -6 -6 -6 -6 -6 -6 -6 -6 -6 -5 -6 -6 -6 -6 -6 -6 -6 -6 -6 -6 -6 -6 -6 -6 -6 -6 -6 -6 -6
-6 -6 -7 -7 -7 -7 -7 -6 -6 -6 -6 -6 -6 -6 -6 -6 -6 -6 -6 -6 -6 -5 -5 -6 -6 -6 -6 -6 -6 -6 -6 -6 -6 -6 -6 -6 -6 -6 -6 -6 -6 -6
-6 -6 -7 -7 -7 -7 -7 -6 -6 -6 -6 -6 -6 -6 -6 -6 -7 -7 -7 -6 -6 -6 -6 -6 -6 -6 -6 -6 -6 -6 -6 -6 -6 -6 -6 -6 -6 -6 -6 -6 -6 -6
-7 -7 -7 -7 -7 -7 -7 -6 -6 -6 -6 -6 -6 -6 -6 -7 -7 -7 -7 -6 -6 -6 -6 -6 -6 -6 -6 -6 -6 -6 -6 -6 -6 -6 -6 -6 -6 -6 -6 -6 -6 -6
-7 -7 -6 -6 -6 -6 -7 -7 -6 -6 -6 -6 -6 -6 -6 -7 -7 -7 -7 -7 -7 -6 -6 -6 -6 -6 -6 -6 -6 -6 -6 -6 -6 -6 -6 -6 -6 -6 -6 -6 -6 -6
-7 -7 -6 -6 -6 -6 -6 -7 -7 -6 -6 -6 -6 -6 -6 -7 -7 -7 -7 -7 -7 -7 -7 -6 -6 -6 -6 -6 -6 -6 -6 -6 -6 -6 -6 -6 -6 -6 -6 -6 -6 -6
-6 -6 -6 -6 -6 -6 -7 -7 -7 -6 -6 -6 -6 -6 -6 -6 -7 -7 -7 -6 -7 -7 -7 -7 -7 -7 -6 -6 -7 -7 -7 -6 -6 -6 -6 -6 -6 -6 -6 -6 -6 -6
-6 -6 -6 -6 -6 -6 -7 -7 -6 -6 -6 -6 -6 -6 -6 -6 -6 -7 -7 -7 -7 -7 -7 -7 -7 -7 -6 -6 -7 -7 -7 -7 -7 -7 -6 -7 -7 -7 -7 -7 -7 -7
Height
5942 5943 5943 5944 5945 5946 5947 5948 5949 5949 5950 5951 5951 5952 5952 5952 5953 5953 5954 5955 5956 5957 5958 5958 5959 5960 5961 5962 5963 5964 5965 5966 5967 5967 5968 5969 5969 5970 5970 5970 5970 5970
5942 5942 5943 5944 5945 5946 5947 5948 5949 5950 5951 5951 5952 5952 5953 5953 5954 5954 5955 5956 5957 5957 5958 5959 5960 5961 5962 5963 5964 5964 5965 5966 5967 5968 5968 5969 5969 5970 5970 5970 5970 5970
5941 5942 5943 5944 5945 5946 5947 5948 5949 5950 5951 5951 5952 5953 5954 5954 5955 5955 5956 5957 5958 5958 5959 5960 5961 5962 5963 5963 5964 5965 5965 5966 5967 5968 5968 5968 5969 5969 5969 5969 5969 5969
5941 5942 5943 5944 5945 5946 5947 5948 5948 5949 5950 5951 5952 5953 5954 5955 5955 5956 5957 5958 5958 5959 5960 5961 5961 5962 5963 5964 5964 5965 5965 5966 5966 5967 5967 5968 5968 5968 5968 5969 5969 5968
5941 5942 5942 5943 5944 5945 5946 5947 5948 5949 5950 5951 5952 5953 5954 5955 5956 5956 5957 5958 5959 5960 5960 5961 5962 5962 5963 5963 5964 5965 5965 5965 5966 5966 5967 5967 5967 5967 5967 5968 5968 5968
5940 5941 5942 5943 5944 5945 5945 5946 5947 5948 5949 5950 5951 5952 5953 5954 5955 5956 5957 5958 5959 5960 5960 5961 5961 5962 5962 5963 5963 5964 5964 5965 5965 5965 5966 5966 5966 5966 5966 5967 5967 5967
5939 5940 5941 5942 5943 5944 5945 5945 5946 5948 5949 5950 5950 5951 5952 5953 5954 5955 5956 5957 5958 5959 5960 5960 5961 5962 5962 5962 5963 5963 5963 5964 5964 5964 5965 5965 5965 5965 5966 5966 5966 5965
5938 5939 5940 5941 5942 5943 5944 5945 5946 5947 5948 5949 5949 5950 5951 5952 5953 5954 5955 5956 5957 5958 5959 5959 5960 5960 5961 5961 5962 5962 5963 5963 5963 5963 5964 5964 5964 5964 5964 5965 5965 5964
5937 5938 5940 5941 5941 5942 5943 5944 5945 5946 5947 5947 5948 5949 5950 5951 5952 5953 5954 5955 5956 5957 5957 5958 5959 5959 5960 5960 5960 5961 5961 5962 5962 5963 5963 5963 5963 5963 5963 5964 5964 5964
5936 5937 5938 5939 5940 5941 5942 5943 5943 5944 5946 5947 5947 5948 5949 5950 5951 5952 5953 5954 5955 5955 5956 5957 5957 5958 5958 5959 5959 5959 5960 5961 5961 5962 5962 5962 5963 5962 5962 5963 5963 5963
5935 5936 5937 5938 5939 5940 5941 5941 5942 5943 5944 5946 5947 5948 5948 5949 5950 5951 5952 5953 5953 5954 5954 5955 5956 5956 5957 5957 5958 5958 5958 5959 5960 5960 5961 5962 5962 5962 5962 5962 5962 5962
5933 5934 5935 5936 5937 5938 5939 5940 5941 5942 5943 5944 5945 5946 5947 5948 5949 5950 5951 5951 5952 5953 5953 5954 5955 5955 5956 5956 5957 5957 5957 5958 5958 5959 5960 5960 5961 5961 5961 5961 5961 5961
5932 5933 5934 5935 5936 5936 5937 5938 5939 5940 5941 5943 5944 5945 5945 5946 5947 5948 5949 5950 5950 5951 5952 5952 5953 5954 5955 5955 5956 5956 5957 5957 5958 5958 5958 5959 5959 5959 5959 5959 5960 5960
5930 5931 5932 5933 5934 5935 5935 5936 5937 5938 5939 5940 5942 5943 5944 5944 5946 5947 5947 5948 5949 5949 5950 5950 5951 5952 5953 5954 5955 5955 5955 5956 5957 5957 5957 5958 5958 5958 5958 5958 5958 5959
5927 5928 5930 5931 5932 5932 5933 5934 5934 5935 5938 5939 5940 5941 5942 5943 5944 5944 5945 5946 5946 5947 5947 5948 5950 5951 5952 5952 5953 5954 5954 5954 5955 5955 5955 5956 5956 5957 5956 5956 5956 5957
5924 5925 5926 5928 5929 5929 5930 5931 5932 5934 5935 5937 5937 5938 5939 5941 5942 5942 5943 5943 5943 5943 5945 5946 5948 5949 5949 5950 5951 5952 5952 5952 5952 5953 5953 5954 5954 5954 5955 5954 5955 5955
5921 5921 5922 5923 5924 5925 5926 5928 5930 5932 5932 5933 5935 5936 5937 5938 5938 5939 5940 5940 5940 5940 5942 5944 5945 5945 5946 5947 5948 5949 5950 5950 5950 5950 5951 5952 5952 5952 5952 5952 5952 5952
5918 5919 5919 5919 5920 5922 5925 5927 5929 5930 5930 5931 5932 5933 5934 5934 5935 5936 5936 5937 5937 5937 5939 5941 5942 5942 5943 5944 5945 5946 5947 5947 5947 5948 5948 5949 5949 5949 5950 5950 5950 5950
5914 5915 5917 5919 5920 5923 5926 5927 5927 5927 5928 5928 5929 5930 5930 5931 5932 5932 5933 5933 5933 5933 5936 5939 5939 5940 5941 5941 5942 5943 5944 5944 5944 5944 5945 5945 5946 5946 5946 5947 5948 5948
5911 5912 5914 5916 5918 5922 5925 5923 5922 5923 5924 5925 5925 5926 5926 5926 5927 5928 5929 5930 5930 5930 5934 5937 5937 5937 5937 5938 5939 5939 5939 5940 5940 5941 5941 5942 5941 5942 5944 5945 5945 5945
5908 5908 5910 5911 5913 5917 5920 5919 5917 5918 5920 5921 5922 5922 5921 5923 5926 5926 5926 5926 5926 5927 5932 5934 5934 5933 5933 5934 5935 5935 5936 5936 5937 5937 5938 5937 5938 5940 5941 5942 5942 5942
5906 5905 5905 5906 5909 5911 5914 5915 5915 5915 5916 5917 5917 5916 5917 5920 5923 5924 5923 5922 5922 5925 5928 5929 5928 5929 5929 5929 5930 5931 5932 5932 5933 5933 5933 5933 5936 5938 5938 5938 5938 5939
5904 5904 5901 5902 5904 5906 5908 5911 5912 5912 5913 5913 5912 5912 5912 5915 5919 5921 5921 5920 5920 5921 5923 5923 5924 5924 5924 5925 5926 5926 5927 5928 5928 5929 5929 5930 5933 5934 5934 5934 5935 5935
5899 5900 5899 5899 5901 5902 5904 5906 5907 5908 5909 5909 5908 5908 5909 5912 5915 5917 5918 5917 5916 5917 5918 5918 5919 5919 5919 5920 5922 5922 5922 5923 5924 5925 5926 5927 5929 5930 5930 5930 5931 5931
5893 5895 5896 5897 5898 5899 5900 5902 5904 5904 5904 5904 5904 5904 5906 5908 5910 5911 5912 5914 5913 5913 5913 5914 5914 5914 5914 5915 5916 5917 5917 5918 5919 5921 5921 5923 5924 5925 5926 5927 5927 5927
5889 5891 5892 5894 5896 5896 5897 5899 5900 5900 5900 5900 5900 5901 5902 5904 5905 5905 5907 5909 5909 5909 5908 5909 5909 5909 5909 5909 5910 5911 5912 5913 5914 5916 5917 5918 5920 5921 5922 5923 5923 5923
Wind_Speed
4 4 5 6 6 6 7 6 6 6 6 6 6 6 6 5 6 6 6 6 6 6 6 7 6 7 7 6 5 4 3 2 2 0 1 2 3 4 5 6 7 8
4 4 4 6 6 7 7 7 7 7 6 6 6 6 6 6 6 6 6 6 6 5 6 6 6 6 6 6 6 5 4 3 3 2 2 3 4 5 6 7 7 8
5 4 5 6 7 7 8 8 8 8 7 7 7 7 7 7 6 6 6 6 6 6 6 6 6 6 7 6 6 6 5 5 5 5 5 5 6 6 7 7 8 8
6 6 6 6 7 7 8 8 8 9 9 8 8 8 8 8 8 8 8 8 8 8 8 8 8 8 8 8 7 7 7 7 7 6 7 7 7 7 7 7 7 7
8 8 8 8 8 8 8 8 9 9 9 9 9 9 9 9 8 9 9 9 9 9 9 10 10 10 9 9 9 9 8 8 8 8 8 8 8 8 8 8 7 6
10 10 10 9 9 8 8 8 9 9 10 10 10 10 10 9 9 9 10 10 10 10 10 10 11 11 11 11 11 10 10 10 10 10 10 9 9 8 7 7 7 7
11 11 11 11 10 10 9 9 10 10 10 11 10 10 10 10 10 10 10 10 11 11 11 11 11 11 11 12 12 11 11 11 11 11 11 10 9 8 7 6 7 7
13 12 12 12 12 11 11 11 11 11 11 11 11 11 11 11 11 10 11 11 12 12 12 12 13 13 13 13 12 13 12 12 11 11 11 10 9 8 7 7 7 7
15 14 14 13 13 13 13 13 12 12 12 12 12 12 12 12 12 12 12 13 13 13 13 13 14 14 13 13 13 13 13 12 12 12 11 10 9 8 8 8 7 7
16 16 15 15 15 15 15 14 14 13 13 13 13 13 13 13 14 14 14 14 14 15 15 15 15 14 14 13 14 14 14 13 12 12 12 11 10 9 9 8 8 8
16 16 17 17 16 16 16 16 16 15 15 15 14 14 14 14 14 15 15 16 16 16 16 16 16 15 15 15 15 15 15 14 13 13 12 12 12 11 10 10 10 10
17 17 17 17 18 18 18 18 18 17 17 17 15 16 16 15 15 15 16 17 17 17 17 17 16 16 17 17 17 16 16 15 14 14 13 13 13 13 12 12 12 12
18 18 18 18 18 19 20 20 20 19 19 19 18 18 18 17 17 17 17 17 18 17 17 17 17 18 17 17 17 17 17 16 15 15 14 14 14 14 13 14 14 13
21 21 20 21 20 20 20 21 21 21 21 21 20 20 20 19 19 18 18 18 18 18 18 18 19 19 18 18 18 18 18 18 17 16 16 16 16 15 15 15 15 15
24 24 24 23 23 23 23 22 22 22 21 21 22 22 22 22 21 21 21 20 20 21 20 20 20 19 19 20 20 20 20 20 19 19 18 18 18 18 17 16 15 15
25 26 26 25 25 26 26 25 24 23 22 22 22 23 23 23 23 23 23 23 23 24 23 21 20 20 21 21 21 21 22 22 21 21 21 20 20 20 19 19 17 17
26 27 28 27 28 28 28 28 26 25 25 25 24 23 23 23 24 25 25 24 25 26 25 23 22 23 23 22 22 23 23 23 23 22 22 22 22 22 21 20 20 18
27 28 28 28 29 28 26 25 25 26 27 27 26 26 26 26 26 26 26 26 27 28 27 26 25 26 26 25 25 24 23 24 25 25 24 24 24 24 24 22 21 21
29 30 29 28 27 25 23 23 24 25 25 26 27 28 27 28 28 28 29 28 29 30 28 26 27 28 28 28 28 27 26 26 26 26 26 26 26 26 26 25 24 24
28 29 29 29 27 24 22 25 26 25 25 26 27 28 28 29 29 29 29 30 31 32 29 27 27 29 30 30 30 30 30 29 29 29 28 28 29 28 27 26 27 27
24 25 26 28 29 26 25 26 28 27 27 27 28 29 30 28 26 25 28 30 32 32 29 28 29 30 31 32 31 31 31 31 31 31 31 31 31 29 28 29 29 28
21 22 24 25 26 26 26 27 29 29 29 29 30 32 32 29 26 26 29 31 32 30 29 30 31 33 34 35 34 33 33 33 33 33 33 33 32 30 30 30 30 30
20 20 24 25 25 25 25 26 28 30 31 32 33 34 34 32 29 29 31 33 34 33 33 34 34 35 36 36 36 36 35 34 34 34 35 34 32 31 31 31 30 30
24 23 25 27 27 26 24 23 24 28 31 34 35 36 36 34 32 32 32 33 35 36 37 38 38 40 40 39 38 38 39 38 37 36 35 34 33 32 31 30 30 30
30 27 26 27 28 26 24 22 22 24 28 31 34 36 37 35 34 35 35 34 35 36 36 38 39 40 42 42 42 41 41 40 39 37 36 36 34 33 32 31 30 31
32 31 29 27 26 27 26 25 24 25 26 28 31 33 36 36 35 36 36 34 35 35 36 38 38 37 38 40 41 42 43 42 41 40 39 37 34 33 33 31 31 31
Wind_Direction
184 176 167 170 173 167 165 169 169 168 166 159 153 148 143 137 133 130 130 132 136 140 139 139 142 141 140 144 145 150 156 156 167 242 319 323 322 318 318 321 322 324
204 193 182 180 183 181 178 177 176 179 180 175 170 167 162 157 152 147 147 149 152 154 155 156 159 161 163 168 173 180 192 208 228 251 283 295 300 304 308 310 314 316
224 211 204 199 194 190 189 185 180 183 186 186 185 181 179 178 174 170 170 171 173 176 179 181 182 184 187 191 198 207 216 231 246 261 273 281 287 293 300 303 306 310
228 221 218 219 213 203 198 193 187 188 189 192 196 195 194 191 188 188 188 188 189 192 194 197 201 204 209 213 218 225 233 243 252 264 272 278 285 290 294 298 301 303
227 228 226 229 230 220 211 205 200 198 197 197 200 203 206 203 199 200 202 202 202 204 206 208 212 216 223 229 235 241 248 255 261 268 272 277 283 287 292 296 295 293
223 227 229 232 234 231 226 221 216 212 209 207 208 208 211 213 212 213 214 214 213 215 218 221 224 227 232 238 244 250 256 262 267 270 274 277 279 281 285 290 289 289
222 225 229 232 233 233 235 232 228 225 221 218 217 217 216 217 220 223 226 227 225 225 227 231 234 237 241 245 249 254 258 262 266 268 271 273 275 275 274 273 275 280
226 225 227 230 232 233 235 235 232 231 230 228 226 226 226 225 225 227 232 236 237 237 237 237 239 242 245 249 252 256 258 260 263 265 266 266 267 269 268 267 269 273
229 229 229 230 232 233 235 237 237 236 237 237 236 236 236 235 234 232 234 237 240 242 243 243 243 243 245 247 250 254 256 258 259 260 260 259 258 258 261 264 266 270
230 231 232 232 234 236 238 240 241 242 243 243 243 245 244 242 242 240 238 237 238 240 242 244 245 246 245 245 247 250 251 252 254 257 260 260 258 255 256 260 264 268
233 233 233 234 235 237 239 241 241 242 244 245 247 250 248 246 246 247 246 244 242 240 241 243 245 247 247 246 246 248 250 251 252 254 256 260 261 260 259 260 263 266
239 239 237 236 235 236 238 240 241 242 245 247 247 249 251 249 248 248 248 248 248 245 245 246 246 248 249 248 248 249 250 251 252 252 254 256 259 261 263 264 265 266
242 244 245 243 240 239 239 240 240 241 243 246 246 247 250 251 250 249 248 248 250 251 250 248 248 248 250 251 252 252 252 252 255 257 257 256 256 258 262 265 268 270
242 244 246 248 248 246 244 244 243 241 241 243 245 247 249 250 252 253 251 250 251 252 252 252 253 253 254 253 253 254 254 254 256 257 259 260 260 261 262 263 268 273
245 245 246 248 249 250 249 248 248 248 246 245 245 246 247 248 251 253 254 254 254 253 253 253 255 258 258 257 257 257 258 258 259 259 260 261 262 263 264 263 265 269
244 245 247 247 247 249 250 249 250 252 253 252 250 250 249 249 249 249 252 255 256 256 255 254 254 256 258 260 261 260 260 261 263 263 262 262 263 264 265 265 264 264
244 243 244 245 245 246 247 247 249 251 252 254 254 254 253 253 251 250 250 250 252 254 255 254 255 255 255 256 258 259 260 262 262 264 264 263 262 263 264 264 266 267
246 242 241 242 243 243 247 251 252 253 254 254 255 255 254 254 253 254 253 251 251 252 253 254 255 256 256 256 256 258 260 261 261 262 263 263 262 263 263 264 268 270
247 244 241 243 244 244 250 254 253 253 255 255 256 256 256 256 255 254 255 255 254 254 253 253 254 255 257 257 257 258 259 258 258 259 261 262 262 262 263 266 268 268
253 250 244 244 247 245 244 248 249 248 249 252 254 255 256 256 255 256 256 257 258 258 258 257 257 258 258 258 258 259 258 257 256 256 258 259 259 260 263 265 267 267
256 255 246 243 246 244 240 241 246 247 247 249 251 252 253 251 252 257 260 260 261 262 263 261 259 259 259 258 257 257 257 258 257 257 256 256 258 261 263 265 266 267
254 254 252 249 249 248 244 243 246 249 251 251 250 251 252 250 248 254 260 262 263 264 264 263 261 259 259 258 257 256 255 256 257 256 256 257 258 260 262 263 264 266
253 251 255 258 257 256 254 251 250 250 252 253 253 253 255 255 254 255 257 261 264 265 264 263 262 261 260 259 259 258 256 255 255 256 256 257 258 258 259 261 263 264
255 250 253 258 260 261 261 259 257 255 253 253 254 256 257 259 260 260 259 261 264 265 264 263 262 262 262 261 260 259 258 256 256 256 258 258 258 257 258 260 261 263
258 255 255 257 260 262 263 262 264 262 258 256 256 257 258 259 261 261 260 261 263 265 266 266 266 265 265 264 262 258 257 257 256 256 257 258 258 259 259 259 260 262
262 262 261 261 261 263 264 264 264 263 261 260 259 259 259 259 260 261 261 261 263 265 266 267 268 268 268 269 265 258 256 257 256 255 255 256 258 260 261 261 261 261